Time,TemperatureF,DewpointF,PressureIn,WindDirection,WindDirectionDegrees,WindSpeedMPH,WindSpeedGustMPH,Humidity,HourlyPrecipIn,Conditions,Clouds,dailyrainin,SoftwareType,DateUTC
2013-05-23 00:00:00,61.7,56.5,29.73,SSW,203,0.0,0.4,83,0.00,,,0.00,WUHU216HW,2013-05-23 04:00:00,
2013-05-23 00:01:00,61.6,56.3,29.73,SSW,203,0.0,0.4,83,0.00,,,0.00,WUHU216HW,2013-05-23 04:01:00,
2013-05-23 00:02:00,61.7,56.5,29.73,SSW,203,0.4,0.4,83,0.00,,,0.00,WUHU216HW,2013-05-23 04:02:00,
2013-05-23 00:07:00,61.6,56.3,29.74,SSW,203,0.0,0.4,83,0.00,,,0.00,WUHU216HW,2013-05-23 04:07:00,
2013-05-23 00:12:00,61.6,56.3,29.73,SSW,203,0.0,0.2,83,0.00,,,0.00,WUHU216HW,2013-05-23 04:12:00,
2013-05-23 00:17:00,61.4,56.2,29.73,SSW,203,0.0,0.2,83,0.00,,,0.00,WUHU216HW,2013-05-23 04:17:00,
2013-05-23 00:22:00,61.6,56.3,29.73,SSW,203,0.0,0.2,83,0.00,,,0.00,WUHU216HW,2013-05-23 04:22:00,
2013-05-23 00:27:00,61.4,56.2,29.73,SSW,203,0.0,0.0,83,0.00,,,0.00,WUHU216HW,2013-05-23 04:27:00,
2013-05-23 00:32:00,61.4,56.2,29.73,SSW,203,0.0,0.0,83,0.00,,,0.00,WUHU216HW,2013-05-23 04:32:00,
2013-05-23 00:37:00,61.2,56.1,29.73,SSW,203,0.0,0.0,83,0.00,,,0.00,WUHU216HW,2013-05-23 04:37:00,
2013-05-23 00:42:00,61.2,56.1,29.73,SSW,203,0.0,0.2,83,0.00,,,0.00,WUHU216HW,2013-05-23 04:42:00,
2013-05-23 00:47:00,61.0,55.9,29.73,SSW,203,0.0,0.2,83,0.00,,,0.00,WUHU216HW,2013-05-23 04:47:00,
2013-05-23 00:52:00,60.8,55.7,29.73,SSW,203,0.0,0.0,83,0.00,,,0.00,WUHU216HW,2013-05-23 04:52:00,
2013-05-23 00:57:00,60.8,55.7,29.73,SSW,203,0.0,0.0,83,0.00,,,0.00,WUHU216HW,2013-05-23 04:57:00,
2013-05-23 01:02:00,60.8,55.7,29.73,SSW,203,0.0,0.0,83,0.00,,,0.00,WUHU216HW,2013-05-23 05:02:00,
2013-05-23 01:07:00,60.8,55.7,29.74,SW,225,0.0,0.0,83,0.00,,,0.00,WUHU216HW,2013-05-23 05:07:00,
2013-05-23 01:12:00,60.8,55.7,29.74,SW,225,0.0,0.0,83,0.00,,,0.00,WUHU216HW,2013-05-23 05:12:00,
2013-05-23 01:17:00,60.7,55.5,29.73,SW,225,0.0,0.0,83,0.00,,,0.00,WUHU216HW,2013-05-23 05:17:00,
2013-05-23 01:22:00,60.7,55.5,29.73,SW,225,0.0,0.0,83,0.00,,,0.00,WUHU216HW,2013-05-23 05:22:00,
2013-05-23 01:27:00,60.5,55.4,29.73,SW,225,0.0,0.0,83,0.00,,,0.00,WUHU216HW,2013-05-23 05:27:00,
2013-05-23 01:32:00,60.7,55.5,29.73,SW,225,0.0,0.0,83,0.00,,,0.00,WUHU216HW,2013-05-23 05:32:00,
2013-05-23 01:37:00,60.5,55.4,29.73,SW,225,0.0,0.0,83,0.00,,,0.00,WUHU216HW,2013-05-23 05:37:00,
2013-05-23 01:42:00,60.5,55.4,29.74,SW,225,0.4,0.4,83,0.00,,,0.00,WUHU216HW,2013-05-23 05:42:00,
2013-05-23 01:47:00,60.5,55.6,29.73,SW,225,0.0,0.4,84,0.00,,,0.00,WUHU216HW,2013-05-23 05:47:00,
2013-05-23 01:52:00,60.5,55.6,29.74,SW,225,0.0,0.4,84,0.00,,,0.00,WUHU216HW,2013-05-23 05:52:00,
2013-05-23 01:57:00,60.5,55.6,29.73,SW,225,0.0,0.4,84,0.00,,,0.00,WUHU216HW,2013-05-23 05:57:00,
2013-05-23 02:02:00,60.3,55.4,29.73,SW,225,0.0,0.2,84,0.00,,,0.00,WUHU216HW,2013-05-23 06:02:00,
2013-05-23 02:07:00,60.3,55.4,29.73,SW,225,0.2,0.2,84,0.00,,,0.00,WUHU216HW,2013-05-23 06:07:00,
2013-05-23 02:12:00,60.3,55.4,29.73,SW,225,0.0,0.2,84,0.00,,,0.00,WUHU216HW,2013-05-23 06:12:00,
2013-05-23 02:17:00,60.1,55.3,29.73,SW,225,0.0,0.0,84,0.00,,,0.00,WUHU216HW,2013-05-23 06:17:00,
2013-05-23 02:22:00,60.1,55.3,29.72,SW,225,0.0,0.0,84,0.00,,,0.00,WUHU216HW,2013-05-23 06:22:00,
2013-05-23 02:27:00,60.1,55.3,29.73,SW,225,0.0,0.0,84,0.00,,,0.00,WUHU216HW,2013-05-23 06:27:00,
2013-05-23 02:32:00,60.1,55.3,29.73,SW,225,0.0,0.0,84,0.00,,,0.00,WUHU216HW,2013-05-23 06:32:00,
2013-05-23 02:37:00,60.1,55.3,29.73,SW,225,0.0,0.0,84,0.00,,,0.00,WUHU216HW,2013-05-23 06:37:00,
2013-05-23 02:42:00,59.9,55.1,29.72,SW,225,0.0,0.0,84,0.00,,,0.00,WUHU216HW,2013-05-23 06:42:00,
2013-05-23 02:47:00,59.9,55.1,29.72,SW,225,0.0,0.0,84,0.00,,,0.00,WUHU216HW,2013-05-23 06:47:00,
2013-05-23 02:52:00,59.8,54.9,29.72,North,0,0.0,0.0,84,0.00,,,0.00,WUHU216HW,2013-05-23 06:52:00,
2013-05-23 02:57:00,59.8,54.9,29.72,North,0,0.0,0.0,84,0.00,,,0.00,WUHU216HW,2013-05-23 06:57:00,
2013-05-23 03:02:00,59.8,54.9,29.72,North,0,0.0,0.0,84,0.00,,,0.00,WUHU216HW,2013-05-23 07:02:00,
2013-05-23 03:07:00,59.6,54.7,29.72,North,0,0.0,0.0,84,0.00,,,0.00,WUHU216HW,2013-05-23 07:07:00,
2013-05-23 03:12:00,59.6,54.7,29.72,North,0,0.0,0.0,84,0.00,,,0.00,WUHU216HW,2013-05-23 07:12:00,
2013-05-23 03:17:00,59.6,54.7,29.72,North,0,0.0,0.0,84,0.00,,,0.00,WUHU216HW,2013-05-23 07:17:00,
2013-05-23 03:22:00,59.6,54.7,29.72,North,0,0.0,0.0,84,0.00,,,0.00,WUHU216HW,2013-05-23 07:22:00,
2013-05-23 03:27:00,59.6,54.7,29.72,North,0,0.0,0.0,84,0.00,,,0.00,WUHU216HW,2013-05-23 07:27:00,
2013-05-23 03:32:00,59.4,54.5,29.72,North,0,0.0,0.0,84,0.00,,,0.00,WUHU216HW,2013-05-23 07:32:00,
2013-05-23 03:37:00,59.4,54.5,29.72,North,0,0.0,0.0,84,0.00,,,0.00,WUHU216HW,2013-05-23 07:37:00,
2013-05-23 03:42:00,59.4,54.5,29.72,North,0,0.0,0.0,84,0.00,,,0.00,WUHU216HW,2013-05-23 07:42:00,
2013-05-23 03:47:00,59.4,54.5,29.72,North,0,0.0,0.0,84,0.00,,,0.00,WUHU216HW,2013-05-23 07:47:00,
2013-05-23 03:53:00,59.4,54.9,29.72,North,0,0.0,0.0,85,0.00,,,0.00,WUHU216HW,2013-05-23 07:53:00,
2013-05-23 03:58:00,59.4,54.9,29.72,West,270,0.0,0.0,85,0.00,,,0.00,WUHU216HW,2013-05-23 07:58:00,
2013-05-23 04:03:00,59.6,55.1,29.72,West,270,0.0,0.0,85,0.00,,,0.00,WUHU216HW,2013-05-23 08:03:00,
2013-05-23 04:08:00,59.6,55.1,29.72,West,270,0.0,0.0,85,0.00,,,0.00,WUHU216HW,2013-05-23 08:08:00,
2013-05-23 04:13:00,59.8,55.3,29.72,West,270,0.0,0.0,85,0.00,,,0.00,WUHU216HW,2013-05-23 08:13:00,
2013-05-23 04:18:00,59.8,55.3,29.72,West,270,0.0,0.0,85,0.00,,,0.00,WUHU216HW,2013-05-23 08:18:00,
2013-05-23 04:23:00,59.8,55.3,29.72,WNW,293,0.0,0.2,85,0.00,,,0.00,WUHU216HW,2013-05-23 08:23:00,
2013-05-23 04:28:00,59.8,55.3,29.72,WNW,293,0.0,0.2,85,0.00,,,0.00,WUHU216HW,2013-05-23 08:28:00,
2013-05-23 04:33:00,59.8,55.3,29.72,WNW,293,0.0,0.0,85,0.00,,,0.00,WUHU216HW,2013-05-23 08:33:00,
2013-05-23 04:38:00,59.8,55.3,29.73,WNW,293,0.0,0.0,85,0.00,,,0.00,WUHU216HW,2013-05-23 08:38:00,
2013-05-23 04:43:00,59.9,55.4,29.73,NW,315,0.0,0.0,85,0.00,,,0.00,WUHU216HW,2013-05-23 08:43:00,
2013-05-23 04:48:00,59.9,55.4,29.73,NW,315,0.0,0.0,85,0.00,,,0.00,WUHU216HW,2013-05-23 08:48:00,
2013-05-23 04:53:00,60.1,55.6,29.73,NW,315,0.0,0.0,85,0.00,,,0.00,WUHU216HW,2013-05-23 08:53:00,
2013-05-23 04:58:00,60.1,55.6,29.73,NW,315,0.0,0.0,85,0.00,,,0.00,WUHU216HW,2013-05-23 08:58:00,
2013-05-23 05:03:00,60.1,55.6,29.73,NW,315,0.0,0.0,85,0.00,,,0.00,WUHU216HW,2013-05-23 09:03:00,
2013-05-23 05:08:00,60.1,55.6,29.73,SW,225,0.0,0.4,85,0.00,,,0.00,WUHU216HW,2013-05-23 09:08:00,
2013-05-23 05:13:00,60.1,55.6,29.73,SW,225,0.0,0.4,85,0.00,,,0.00,WUHU216HW,2013-05-23 09:13:00,
2013-05-23 05:18:00,60.1,55.6,29.73,SW,225,0.0,0.0,85,0.00,,,0.00,WUHU216HW,2013-05-23 09:18:00,
2013-05-23 05:23:00,60.1,55.6,29.73,SW,225,0.0,0.0,85,0.00,,,0.00,WUHU216HW,2013-05-23 09:23:00,
2013-05-23 05:28:00,60.1,55.6,29.73,SW,225,0.0,0.0,85,0.00,,,0.00,WUHU216HW,2013-05-23 09:28:00,
2013-05-23 05:33:00,60.1,55.6,29.73,SW,225,0.0,0.0,85,0.00,,,0.00,WUHU216HW,2013-05-23 09:33:00,
2013-05-23 05:38:00,60.1,55.6,29.74,SW,225,0.0,0.0,85,0.00,,,0.00,WUHU216HW,2013-05-23 09:38:00,
2013-05-23 05:43:00,60.1,56.0,29.74,SW,225,0.0,0.0,86,0.00,,,0.00,WUHU216HW,2013-05-23 09:43:00,
2013-05-23 05:48:00,60.1,56.0,29.74,NNW,338,0.2,0.2,86,0.00,,,0.00,WUHU216HW,2013-05-23 09:48:00,
2013-05-23 05:53:00,59.9,55.8,29.74,NNW,338,0.0,0.2,86,0.00,,,0.00,WUHU216HW,2013-05-23 09:53:00,
2013-05-23 05:58:00,59.9,55.8,29.74,West,270,0.0,0.0,86,0.00,,,0.00,WUHU216HW,2013-05-23 09:58:00,
2013-05-23 06:03:00,60.1,56.0,29.74,NW,315,0.0,0.0,86,0.00,,,0.00,WUHU216HW,2013-05-23 10:03:00,
2013-05-23 06:08:00,60.1,56.0,29.74,NW,315,0.0,0.0,86,0.00,,,0.00,WUHU216HW,2013-05-23 10:08:00,
2013-05-23 06:13:00,60.1,56.0,29.75,NW,315,0.0,0.0,86,0.00,,,0.00,WUHU216HW,2013-05-23 10:13:00,
2013-05-23 06:18:00,60.1,56.0,29.74,NW,315,0.0,0.0,86,0.00,,,0.00,WUHU216HW,2013-05-23 10:18:00,
2013-05-23 06:23:00,60.1,56.0,29.75,NW,315,0.0,0.0,86,0.00,,,0.00,WUHU216HW,2013-05-23 10:23:00,
2013-05-23 06:28:00,60.1,56.0,29.75,NW,315,0.0,0.0,86,0.00,,,0.00,WUHU216HW,2013-05-23 10:28:00,
2013-05-23 06:33:00,60.1,56.0,29.75,NNW,338,0.2,0.2,86,0.00,,,0.00,WUHU216HW,2013-05-23 10:33:00,
2013-05-23 06:38:00,60.1,56.0,29.75,NNW,338,0.0,0.2,86,0.00,,,0.00,WUHU216HW,2013-05-23 10:38:00,
2013-05-23 06:43:00,60.1,56.0,29.75,NNW,338,0.0,0.0,86,0.00,,,0.00,WUHU216HW,2013-05-23 10:43:00,
2013-05-23 06:48:00,60.1,56.0,29.75,NNW,338,0.0,0.0,86,0.00,,,0.00,WUHU216HW,2013-05-23 10:48:00,
2013-05-23 06:53:00,60.1,56.0,29.75,NNW,338,0.0,0.0,86,0.00,,,0.00,WUHU216HW,2013-05-23 10:53:00,
2013-05-23 06:58:00,60.1,56.0,29.75,NW,315,0.2,0.2,86,0.00,,,0.00,WUHU216HW,2013-05-23 10:58:00,
2013-05-23 07:03:00,60.3,56.2,29.75,NW,315,0.0,0.2,86,0.00,,,0.00,WUHU216HW,2013-05-23 11:03:00,
2013-05-23 07:08:00,60.1,56.0,29.75,NW,315,0.0,0.2,86,0.00,,,0.00,WUHU216HW,2013-05-23 11:08:00,
2013-05-23 07:13:00,60.1,56.0,29.75,NW,315,0.0,0.2,86,0.00,,,0.00,WUHU216HW,2013-05-23 11:13:00,
2013-05-23 07:18:00,60.3,56.2,29.75,NW,315,0.0,0.2,86,0.00,,,0.00,WUHU216HW,2013-05-23 11:18:00,
2013-05-23 07:23:00,60.1,56.0,29.75,NW,315,0.2,0.4,86,0.00,,,0.00,WUHU216HW,2013-05-23 11:23:00,
2013-05-23 07:28:00,60.1,56.0,29.76,SE,135,0.4,0.9,86,0.00,,,0.00,WUHU216HW,2013-05-23 11:28:00,
2013-05-23 07:33:00,60.1,56.0,29.76,WSW,248,0.4,0.9,86,0.00,,,0.00,WUHU216HW,2013-05-23 11:33:00,
2013-05-23 07:38:00,60.1,56.0,29.76,NW,315,0.4,0.4,86,0.00,,,0.00,WUHU216HW,2013-05-23 11:38:00,
2013-05-23 07:43:00,60.1,56.0,29.76,SW,225,0.0,0.4,86,0.00,,,0.00,WUHU216HW,2013-05-23 11:43:00,
2013-05-23 07:48:00,60.1,56.0,29.76,NW,315,0.4,0.4,86,0.00,,,0.00,WUHU216HW,2013-05-23 11:48:00,
2013-05-23 07:53:00,60.1,56.0,29.76,WNW,293,0.0,1.8,86,0.00,,,0.00,WUHU216HW,2013-05-23 11:53:00,
2013-05-23 07:58:00,60.3,56.2,29.77,WNW,293,0.0,1.8,86,0.00,,,0.00,WUHU216HW,2013-05-23 11:58:00,
2013-05-23 08:03:00,60.3,56.2,29.77,WNW,293,0.0,0.0,86,0.00,,,0.00,WUHU216HW,2013-05-23 12:03:00,
2013-05-23 08:08:00,60.3,56.2,29.77,WNW,293,0.0,0.0,86,0.00,,,0.00,WUHU216HW,2013-05-23 12:08:00,
2013-05-23 08:13:00,60.3,56.2,29.77,NW,315,0.0,0.4,86,0.00,,,0.00,WUHU216HW,2013-05-23 12:13:00,
2013-05-23 08:18:00,60.5,56.4,29.77,NW,315,0.0,0.4,86,0.00,,,0.00,WUHU216HW,2013-05-23 12:18:00,
2013-05-23 08:23:00,60.5,56.4,29.77,NW,315,0.2,0.4,86,0.00,,,0.00,WUHU216HW,2013-05-23 12:23:00,
2013-05-23 08:28:00,60.7,56.5,29.77,NW,315,0.2,1.1,86,0.00,,,0.00,WUHU216HW,2013-05-23 12:28:00,
2013-05-23 08:33:00,60.8,56.7,29.77,NW,315,0.2,1.1,86,0.00,,,0.00,WUHU216HW,2013-05-23 12:33:00,
2013-05-23 08:38:00,60.8,56.7,29.77,South,180,0.2,0.4,86,0.00,,,0.00,WUHU216HW,2013-05-23 12:38:00,
2013-05-23 08:43:00,61.0,56.9,29.78,NW,315,0.0,0.2,86,0.00,,,0.00,WUHU216HW,2013-05-23 12:43:00,
2013-05-23 08:48:00,61.2,57.0,29.77,NNW,338,0.4,1.3,86,0.00,,,0.00,WUHU216HW,2013-05-23 12:48:00,
2013-05-23 08:53:00,61.4,57.2,29.78,WNW,293,0.2,1.3,86,0.00,,,0.00,WUHU216HW,2013-05-23 12:53:00,
2013-05-23 08:58:00,61.4,57.2,29.78,NW,315,0.2,0.4,86,0.00,,,0.00,WUHU216HW,2013-05-23 12:58:00,
2013-05-23 09:03:00,61.6,57.3,29.78,NW,315,0.0,1.3,86,0.00,,,0.00,WUHU216HW,2013-05-23 13:03:00,
2013-05-23 09:08:00,61.7,57.5,29.78,West,270,0.4,1.3,86,0.00,,,0.00,WUHU216HW,2013-05-23 13:08:00,
2013-05-23 09:13:00,61.7,57.5,29.78,WNW,293,1.6,1.6,86,0.00,,,0.00,WUHU216HW,2013-05-23 13:13:00,
2013-05-23 09:18:00,61.9,57.3,29.78,NW,315,0.7,1.6,85,0.00,,,0.00,WUHU216HW,2013-05-23 13:18:00,
2013-05-23 09:23:00,61.9,57.3,29.79,NNW,338,0.4,1.1,85,0.00,,,0.00,WUHU216HW,2013-05-23 13:23:00,
2013-05-23 09:28:00,62.1,57.5,29.79,North,0,1.1,1.3,85,0.00,,,0.00,WUHU216HW,2013-05-23 13:28:00,
2013-05-23 09:33:00,62.3,57.7,29.79,NW,315,0.4,1.3,85,0.00,,,0.00,WUHU216HW,2013-05-23 13:33:00,
2013-05-23 09:38:00,62.3,57.7,29.79,WNW,293,1.1,1.1,85,0.00,,,0.00,WUHU216HW,2013-05-23 13:38:00,
2013-05-23 09:43:00,62.3,57.3,29.79,NNW,338,0.9,2.5,84,0.00,,,0.00,WUHU216HW,2013-05-23 13:43:00,
2013-05-23 09:48:00,62.3,57.3,29.79,WNW,293,0.7,2.5,84,0.00,,,0.00,WUHU216HW,2013-05-23 13:48:00,
2013-05-23 09:53:00,62.5,57.3,29.79,NW,315,0.4,1.1,83,0.00,,,0.00,WUHU216HW,2013-05-23 13:53:00,
2013-05-23 09:58:00,62.8,57.5,29.79,NW,315,1.6,1.6,83,0.00,,,0.00,WUHU216HW,2013-05-23 13:58:00,
2013-05-23 10:03:00,62.8,57.3,29.80,NW,315,0.4,1.6,82,0.00,,,0.00,WUHU216HW,2013-05-23 14:03:00,
2013-05-23 10:08:00,63.0,57.4,29.79,NNW,338,0.4,1.8,82,0.00,,,0.00,WUHU216HW,2013-05-23 14:08:00,
2013-05-23 10:13:00,63.0,57.4,29.80,NW,315,0.0,1.8,82,0.00,,,0.00,WUHU216HW,2013-05-23 14:13:00,
2013-05-23 10:18:00,63.0,57.4,29.80,NW,315,0.4,0.9,82,0.00,,,0.00,WUHU216HW,2013-05-23 14:18:00,
2013-05-23 10:23:00,63.0,57.4,29.80,South,180,0.4,1.1,82,0.00,,,0.00,WUHU216HW,2013-05-23 14:23:00,
2013-05-23 10:28:00,63.0,57.1,29.80,NW,315,1.8,1.8,81,0.00,,,0.00,WUHU216HW,2013-05-23 14:28:00,
2013-05-23 10:33:00,63.0,57.1,29.80,NW,315,0.0,1.8,81,0.00,,,0.00,WUHU216HW,2013-05-23 14:33:00,
2013-05-23 10:38:00,63.0,57.1,29.80,NW,315,2.0,2.0,81,0.00,,,0.00,WUHU216HW,2013-05-23 14:38:00,
2013-05-23 10:43:00,63.0,57.1,29.80,North,0,1.6,2.0,81,0.00,,,0.00,WUHU216HW,2013-05-23 14:43:00,
2013-05-23 10:48:00,63.0,57.1,29.80,NW,315,0.7,1.6,81,0.00,,,0.00,WUHU216HW,2013-05-23 14:48:00,
2013-05-23 10:53:00,62.8,56.9,29.80,NW,315,0.0,0.7,81,0.00,,,0.00,WUHU216HW,2013-05-23 14:53:00,
2013-05-23 10:58:00,63.0,57.1,29.80,NW,315,0.4,0.9,81,0.00,,,0.00,WUHU216HW,2013-05-23 14:58:00,
2013-05-23 11:03:00,63.2,57.3,29.80,NW,315,0.4,0.9,81,0.00,,,0.00,WUHU216HW,2013-05-23 15:03:00,
2013-05-23 11:08:00,63.2,57.3,29.80,SSW,203,1.1,1.1,81,0.00,,,0.00,WUHU216HW,2013-05-23 15:08:00,
2013-05-23 11:13:00,63.4,57.4,29.80,NW,315,1.1,2.5,81,0.00,,,0.00,WUHU216HW,2013-05-23 15:13:00,
2013-05-23 11:18:00,63.4,57.1,29.80,West,270,0.4,2.5,80,0.00,,,0.00,WUHU216HW,2013-05-23 15:18:00,
2013-05-23 11:23:00,63.5,56.9,29.80,WSW,248,0.4,1.1,79,0.00,,,0.00,WUHU216HW,2013-05-23 15:23:00,
2013-05-23 11:28:00,63.7,57.1,29.80,East,90,1.1,1.1,79,0.00,,,0.00,WUHU216HW,2013-05-23 15:28:00,
2013-05-23 11:33:00,63.7,57.1,29.80,WNW,293,1.1,1.1,79,0.00,,,0.00,WUHU216HW,2013-05-23 15:33:00,
2013-05-23 11:38:00,63.7,57.1,29.80,West,270,0.4,1.1,79,0.00,,,0.00,WUHU216HW,2013-05-23 15:38:00,
2013-05-23 11:43:00,63.7,57.4,29.80,NW,315,0.9,1.8,80,0.00,,,0.00,WUHU216HW,2013-05-23 15:43:00,
2013-05-23 11:48:00,63.7,57.1,29.80,WNW,293,1.1,1.8,79,0.00,,,0.00,WUHU216HW,2013-05-23 15:48:00,
2013-05-23 11:53:00,63.9,57.6,29.80,NW,315,1.6,1.6,80,0.00,,,0.00,WUHU216HW,2013-05-23 15:53:00,
2013-05-23 11:58:00,63.9,57.2,29.80,WNW,293,1.1,1.8,79,0.00,,,0.00,WUHU216HW,2013-05-23 15:58:00,
2013-05-23 12:03:00,64.1,57.1,29.80,NW,315,0.9,2.5,78,0.00,,,0.00,WUHU216HW,2013-05-23 16:03:00,
2013-05-23 12:08:00,64.3,57.6,29.80,NW,315,1.1,2.5,79,0.00,,,0.00,WUHU216HW,2013-05-23 16:08:00,
2013-05-23 12:13:00,64.3,57.2,29.80,NNW,338,1.1,1.6,78,0.00,,,0.00,WUHU216HW,2013-05-23 16:13:00,
2013-05-23 12:18:00,64.1,57.1,29.81,NW,315,0.4,1.6,78,0.00,,,0.00,WUHU216HW,2013-05-23 16:18:00,
2013-05-23 12:23:00,63.9,56.9,29.81,NW,315,0.4,1.1,78,0.00,,,0.00,WUHU216HW,2013-05-23 16:23:00,
2013-05-23 12:28:00,63.5,56.2,29.82,West,270,3.6,3.6,77,0.00,,,0.00,WUHU216HW,2013-05-23 16:28:00,
2013-05-23 12:33:00,62.5,55.1,29.82,SE,135,0.7,3.6,77,0.00,,,0.00,WUHU216HW,2013-05-23 16:33:00,
2013-05-23 12:38:00,61.4,53.7,29.83,NW,315,2.0,2.9,76,0.00,,,0.00,WUHU216HW,2013-05-23 16:38:00,
2013-05-23 12:43:00,60.5,53.6,29.83,ESE,113,3.8,3.8,78,0.00,,,0.00,WUHU216HW,2013-05-23 16:43:00,
2013-05-23 12:48:00,60.3,53.5,29.83,SE,135,2.5,3.8,78,0.00,,,0.00,WUHU216HW,2013-05-23 16:48:00,
2013-05-23 12:53:00,59.8,52.9,29.83,WSW,248,0.9,3.8,78,0.00,,,0.00,WUHU216HW,2013-05-23 16:53:00,
2013-05-23 12:58:00,59.4,52.6,29.84,South,180,2.7,3.4,78,0.00,,,0.00,WUHU216HW,2013-05-23 16:58:00,
2013-05-23 13:03:00,58.9,52.0,29.84,NNE,23,4.7,4.7,78,0.00,,,0.00,WUHU216HW,2013-05-23 17:03:00,
2013-05-23 13:08:00,58.1,50.9,29.84,SSE,158,2.0,4.7,77,0.00,,,0.00,WUHU216HW,2013-05-23 17:08:00,
2013-05-23 13:13:00,57.4,50.2,29.85,ESE,113,1.3,3.4,77,0.00,,,0.00,WUHU216HW,2013-05-23 17:13:00,
2013-05-23 13:18:00,56.9,49.7,29.85,SW,225,1.8,4.0,77,0.00,,,0.00,WUHU216HW,2013-05-23 17:18:00,
2013-05-23 13:23:00,56.3,49.1,29.85,NW,315,0.7,4.3,77,0.00,,,0.00,WUHU216HW,2013-05-23 17:23:00,
2013-05-23 13:28:00,55.8,48.6,29.86,ESE,113,2.5,4.3,77,0.00,,,0.00,WUHU216HW,2013-05-23 17:28:00,
2013-05-23 13:33:00,55.3,48.2,29.86,ESE,113,2.9,4.7,77,0.00,,,0.00,WUHU216HW,2013-05-23 17:33:00,
2013-05-23 13:38:00,54.9,48.2,29.86,SW,225,2.0,4.7,78,0.00,,,0.00,WUHU216HW,2013-05-23 17:38:00,
2013-05-23 13:43:00,54.5,47.4,29.86,ESE,113,2.5,2.9,77,0.00,,,0.00,WUHU216HW,2013-05-23 17:43:00,
2013-05-23 13:48:00,54.0,46.6,29.87,SE,135,2.7,3.4,76,0.00,,,0.00,WUHU216HW,2013-05-23 17:48:00,
2013-05-23 13:53:00,53.6,46.3,29.88,ESE,113,6.3,6.3,76,0.00,,,0.00,WUHU216HW,2013-05-23 17:53:00,
2013-05-23 13:58:00,53.1,46.1,29.88,SW,225,1.8,6.3,77,0.00,,,0.00,WUHU216HW,2013-05-23 17:58:00,
2013-05-23 14:03:00,52.9,46.3,29.89,SE,135,2.9,4.3,78,0.00,,,0.00,WUHU216HW,2013-05-23 18:03:00,
2013-05-23 14:08:00,52.7,46.4,29.89,SE,135,3.8,3.8,79,0.00,,,0.00,WUHU216HW,2013-05-23 18:08:00,
2013-05-23 14:13:00,52.4,46.1,29.90,ESE,113,1.8,3.8,79,0.00,,,0.00,WUHU216HW,2013-05-23 18:13:00,
2013-05-23 14:18:00,52.2,46.3,29.90,SE,135,1.8,2.7,80,0.01,,,0.01,WUHU216HW,2013-05-23 18:18:00,
2013-05-23 14:23:00,51.7,45.4,29.91,SSW,203,2.2,2.7,79,0.01,,,0.01,WUHU216HW,2013-05-23 18:23:00,
2013-05-23 14:28:00,51.1,45.2,29.91,ESE,113,1.6,3.4,80,0.01,,,0.01,WUHU216HW,2013-05-23 18:28:00,
2013-05-23 14:33:00,51.1,45.5,29.91,NE,45,1.8,3.4,81,0.01,,,0.01,WUHU216HW,2013-05-23 18:33:00,
2013-05-23 14:38:00,50.9,45.3,29.91,ESE,113,2.2,3.1,81,0.02,,,0.02,WUHU216HW,2013-05-23 18:38:00,
2013-05-23 14:43:00,50.8,45.5,29.91,North,0,1.6,3.8,82,0.02,,,0.02,WUHU216HW,2013-05-23 18:43:00,
2013-05-23 14:48:00,50.8,45.5,29.92,SE,135,1.6,3.8,82,0.02,,,0.02,WUHU216HW,2013-05-23 18:48:00,
2013-05-23 14:53:00,50.4,45.1,29.92,ESE,113,1.3,3.1,82,0.03,,,0.03,WUHU216HW,2013-05-23 18:53:00,
2013-05-23 14:57:00,50.2,44.9,29.92,South,180,1.6,3.4,82,0.03,,,0.03,WUHU216HW,2013-05-23 18:57:00,
2013-05-23 15:02:00,50.0,44.7,29.92,WNW,293,2.0,4.3,82,0.03,,,0.03,WUHU216HW,2013-05-23 19:02:00,
2013-05-23 15:07:00,49.9,44.8,29.92,ESE,113,1.1,4.3,83,0.03,,,0.03,WUHU216HW,2013-05-23 19:07:00,
2013-05-23 15:12:00,49.7,44.6,29.93,ESE,113,3.4,4.3,83,0.04,,,0.04,WUHU216HW,2013-05-23 19:12:00,
2013-05-23 15:17:00,49.7,45.0,29.93,WNW,293,1.6,4.3,84,0.03,,,0.04,WUHU216HW,2013-05-23 19:17:00,
2013-05-23 15:22:00,49.7,45.0,29.93,NNW,338,0.4,2.0,84,0.04,,,0.05,WUHU216HW,2013-05-23 19:22:00,
2013-05-23 15:27:00,49.3,44.3,29.94,NNE,23,1.3,2.5,83,0.04,,,0.05,WUHU216HW,2013-05-23 19:27:00,
2013-05-23 15:32:00,49.1,44.1,29.94,SE,135,1.1,2.5,83,0.03,,,0.05,WUHU216HW,2013-05-23 19:32:00,
2013-05-23 15:37:00,49.3,44.3,29.95,ESE,113,0.9,1.8,83,0.04,,,0.06,WUHU216HW,2013-05-23 19:37:00,
2013-05-23 15:42:00,49.1,44.1,29.95,SE,135,1.1,1.8,83,0.04,,,0.06,WUHU216HW,2013-05-23 19:42:00,
2013-05-23 15:47:00,48.8,43.8,29.95,West,270,1.8,2.0,83,0.03,,,0.06,WUHU216HW,2013-05-23 19:47:00,
2013-05-23 15:52:00,48.4,43.5,29.95,WNW,293,0.4,2.9,83,0.03,,,0.06,WUHU216HW,2013-05-23 19:52:00,
2013-05-23 15:57:00,48.2,43.3,29.96,SSW,203,1.1,2.9,83,0.03,,,0.06,WUHU216HW,2013-05-23 19:57:00,
2013-05-23 16:02:00,48.2,43.6,29.96,WSW,248,3.4,3.4,84,0.04,,,0.07,WUHU216HW,2013-05-23 20:02:00,
2013-05-23 16:07:00,48.1,43.1,29.96,West,270,2.0,3.4,83,0.04,,,0.07,WUHU216HW,2013-05-23 20:07:00,
2013-05-23 16:12:00,47.9,42.9,29.96,NNE,23,1.8,2.0,83,0.03,,,0.07,WUHU216HW,2013-05-23 20:12:00,
2013-05-23 16:17:00,47.9,43.3,29.96,SE,135,2.5,3.1,84,0.03,,,0.07,WUHU216HW,2013-05-23 20:17:00,
2013-05-23 16:22:00,47.7,43.1,29.97,South,180,0.7,3.1,84,0.02,,,0.07,WUHU216HW,2013-05-23 20:22:00,
2013-05-23 16:27:00,47.5,42.9,29.97,SE,135,1.6,2.5,84,0.02,,,0.07,WUHU216HW,2013-05-23 20:27:00,
2013-05-23 16:32:00,47.5,42.9,29.97,WSW,248,1.1,2.9,84,0.02,,,0.07,WUHU216HW,2013-05-23 20:32:00,
2013-05-23 16:37:00,47.5,42.9,29.97,SE,135,2.7,2.9,84,0.01,,,0.07,WUHU216HW,2013-05-23 20:37:00,
2013-05-23 16:42:00,47.3,42.8,29.97,ESE,113,3.1,3.1,84,0.01,,,0.07,WUHU216HW,2013-05-23 20:42:00,
2013-05-23 16:47:00,47.2,42.3,29.97,SSE,158,1.3,4.9,83,0.01,,,0.07,WUHU216HW,2013-05-23 20:47:00,
2013-05-23 16:52:00,47.0,42.4,29.97,SE,135,1.8,4.9,84,0.01,,,0.07,WUHU216HW,2013-05-23 20:52:00,
2013-05-23 16:57:00,47.0,42.4,29.97,WSW,248,0.7,2.5,84,0.01,,,0.07,WUHU216HW,2013-05-23 20:57:00,
2013-05-23 17:02:00,47.0,42.4,29.98,SSW,203,1.1,2.5,84,0.00,,,0.07,WUHU216HW,2013-05-23 21:02:00,
2013-05-23 17:07:00,46.8,42.2,29.98,WSW,248,1.1,1.6,84,0.00,,,0.07,WUHU216HW,2013-05-23 21:07:00,
2013-05-23 17:12:00,46.8,42.2,29.99,SSE,158,1.1,1.6,84,0.00,,,0.07,WUHU216HW,2013-05-23 21:12:00,
2013-05-23 17:17:00,46.8,42.2,29.99,ESE,113,2.2,2.2,84,0.01,,,0.08,WUHU216HW,2013-05-23 21:17:00,
2013-05-23 17:22:00,46.6,42.0,29.99,SW,225,1.1,2.2,84,0.01,,,0.08,WUHU216HW,2013-05-23 21:22:00,
2013-05-23 17:27:00,46.4,42.0,30.00,ESE,113,1.1,2.5,84,0.01,,,0.08,WUHU216HW,2013-05-23 21:27:00,
2013-05-23 17:32:00,46.4,42.2,30.00,WSW,248,1.1,2.5,85,0.02,,,0.09,WUHU216HW,2013-05-23 21:32:00,
2013-05-23 17:37:00,46.3,42.0,30.01,SE,135,1.1,2.5,85,0.02,,,0.09,WUHU216HW,2013-05-23 21:37:00,
2013-05-23 17:42:00,46.3,42.0,30.01,SSE,158,1.8,3.4,85,0.02,,,0.09,WUHU216HW,2013-05-23 21:42:00,
2013-05-23 17:47:00,46.1,41.6,30.01,SE,135,1.8,3.6,84,0.02,,,0.09,WUHU216HW,2013-05-23 21:47:00,
2013-05-23 17:52:00,46.1,41.6,30.01,SW,225,1.8,5.1,84,0.02,,,0.09,WUHU216HW,2013-05-23 21:52:00,
2013-05-23 17:57:00,45.9,41.4,30.01,SSE,158,1.8,5.1,84,0.02,,,0.09,WUHU216HW,2013-05-23 21:57:00,
2013-05-23 18:02:00,45.9,41.7,30.02,SSW,203,0.9,4.0,85,0.02,,,0.09,WUHU216HW,2013-05-23 22:02:00,
2013-05-23 18:07:00,46.1,41.9,30.02,SE,135,0.9,4.0,85,0.02,,,0.09,WUHU216HW,2013-05-23 22:07:00,
2013-05-23 18:12:00,46.3,42.0,30.03,WSW,248,3.1,3.1,85,0.01,,,0.09,WUHU216HW,2013-05-23 22:12:00,
2013-05-23 18:17:00,46.1,41.9,30.03,East,90,1.8,4.0,85,0.01,,,0.09,WUHU216HW,2013-05-23 22:17:00,
2013-05-23 18:22:00,46.1,41.9,30.03,SE,135,1.1,4.0,85,0.01,,,0.09,WUHU216HW,2013-05-23 22:22:00,
2013-05-23 18:27:00,46.1,41.9,30.03,SSE,158,0.9,2.7,85,0.02,,,0.10,WUHU216HW,2013-05-23 22:27:00,
2013-05-23 18:32:00,46.1,41.9,30.04,WSW,248,1.8,2.9,85,0.01,,,0.10,WUHU216HW,2013-05-23 22:32:00,
2013-05-23 18:37:00,46.1,41.9,30.04,SSE,158,1.8,2.9,85,0.01,,,0.10,WUHU216HW,2013-05-23 22:37:00,
2013-05-23 18:42:00,45.9,41.7,30.04,SE,135,1.8,2.9,85,0.01,,,0.10,WUHU216HW,2013-05-23 22:42:00,
2013-05-23 18:47:00,45.9,41.7,30.04,ESE,113,1.1,2.9,85,0.01,,,0.10,WUHU216HW,2013-05-23 22:47:00,
2013-05-23 18:52:00,46.1,41.9,30.04,WSW,248,1.3,2.5,85,0.01,,,0.10,WUHU216HW,2013-05-23 22:52:00,
2013-05-23 18:57:00,46.1,41.9,30.04,SSW,203,2.5,3.4,85,0.01,,,0.10,WUHU216HW,2013-05-23 22:57:00,
2013-05-23 19:02:00,45.9,41.7,30.05,West,270,1.8,3.6,85,0.01,,,0.10,WUHU216HW,2013-05-23 23:02:00,
2013-05-23 19:07:00,45.9,41.7,30.05,ESE,113,2.2,3.6,85,0.01,,,0.10,WUHU216HW,2013-05-23 23:07:00,
2013-05-23 19:12:00,46.1,41.9,30.05,South,180,0.7,3.4,85,0.01,,,0.10,WUHU216HW,2013-05-23 23:12:00,
2013-05-23 19:17:00,46.1,41.9,30.05,ESE,113,1.6,1.6,85,0.01,,,0.10,WUHU216HW,2013-05-23 23:17:00,
2013-05-23 19:22:00,46.1,41.9,30.06,SE,135,1.1,1.8,85,0.00,,,0.10,WUHU216HW,2013-05-23 23:22:00,
2013-05-23 19:27:00,46.1,41.9,30.06,SE,135,1.6,2.5,85,0.00,,,0.10,WUHU216HW,2013-05-23 23:27:00,
2013-05-23 19:32:00,46.1,41.9,30.06,South,180,1.1,2.5,85,0.00,,,0.10,WUHU216HW,2013-05-23 23:32:00,
2013-05-23 19:37:00,46.1,41.9,30.07,ESE,113,0.9,2.5,85,0.00,,,0.10,WUHU216HW,2013-05-23 23:37:00,
2013-05-23 19:42:00,46.1,41.9,30.08,NW,315,0.7,2.2,85,0.00,,,0.10,WUHU216HW,2013-05-23 23:42:00,
2013-05-23 19:47:00,46.1,41.9,30.08,North,0,1.1,2.0,85,0.00,,,0.10,WUHU216HW,2013-05-23 23:47:00,
2013-05-23 19:52:00,46.3,42.3,30.08,SE,135,2.2,2.2,86,0.00,,,0.10,WUHU216HW,2013-05-23 23:52:00,
2013-05-23 19:57:00,46.1,41.9,30.09,West,270,1.3,2.2,85,0.00,,,0.10,WUHU216HW,2013-05-23 23:57:00,
2013-05-23 20:02:00,46.1,42.1,30.09,SW,225,1.1,2.2,86,0.00,,,0.10,WUHU216HW,2013-05-24 00:02:00,
2013-05-23 20:07:00,46.1,42.1,30.09,SE,135,1.6,2.2,86,0.00,,,0.10,WUHU216HW,2013-05-24 00:07:00,
2013-05-23 20:12:00,46.1,42.1,30.09,ESE,113,1.6,2.5,86,0.00,,,0.10,WUHU216HW,2013-05-24 00:12:00,
2013-05-23 20:17:00,46.1,42.1,30.09,SSE,158,1.8,2.5,86,0.00,,,0.10,WUHU216HW,2013-05-24 00:17:00,
2013-05-23 20:22:00,45.9,41.9,30.10,SSE,158,1.6,2.9,86,0.00,,,0.10,WUHU216HW,2013-05-24 00:22:00,
2013-05-23 20:27:00,45.7,41.5,30.10,East,90,4.3,4.3,85,0.00,,,0.10,WUHU216HW,2013-05-24 00:27:00,
2013-05-23 20:32:00,45.7,41.5,30.11,SW,225,1.8,4.5,85,0.00,,,0.10,WUHU216HW,2013-05-24 00:32:00,
2013-05-23 20:37:00,45.5,41.3,30.11,SE,135,2.0,4.5,85,0.00,,,0.10,WUHU216HW,2013-05-24 00:37:00,
2013-05-23 20:42:00,45.5,41.3,30.11,SE,135,2.0,2.0,85,0.00,,,0.10,WUHU216HW,2013-05-24 00:42:00,
2013-05-23 20:47:00,45.4,41.1,30.11,North,0,2.0,2.2,85,0.00,,,0.10,WUHU216HW,2013-05-24 00:47:00,
2013-05-23 20:52:00,45.4,41.1,30.12,West,270,2.7,2.7,85,0.00,,,0.10,WUHU216HW,2013-05-24 00:52:00,
2013-05-23 20:57:00,45.2,41.0,30.11,SE,135,1.3,3.1,85,0.00,,,0.10,WUHU216HW,2013-05-24 00:57:00,
2013-05-23 21:02:00,45.0,40.8,30.12,East,90,2.7,3.1,85,0.00,,,0.10,WUHU216HW,2013-05-24 01:02:00,
2013-05-23 21:07:00,45.0,40.8,30.12,SW,225,1.3,2.7,85,0.00,,,0.10,WUHU216HW,2013-05-24 01:07:00,
2013-05-23 21:12:00,45.0,40.8,30.12,ESE,113,1.1,2.7,85,0.00,,,0.10,WUHU216HW,2013-05-24 01:12:00,
2013-05-23 21:17:00,45.0,40.8,30.12,South,180,0.4,1.3,85,0.00,,,0.10,WUHU216HW,2013-05-24 01:17:00,
2013-05-23 21:22:00,45.0,40.8,30.12,SSE,158,0.4,1.3,85,0.00,,,0.10,WUHU216HW,2013-05-24 01:22:00,
2013-05-23 21:27:00,45.0,40.8,30.12,ENE,68,0.7,1.3,85,0.00,,,0.10,WUHU216HW,2013-05-24 01:27:00,
2013-05-23 21:32:00,45.0,40.8,30.12,SSE,158,0.4,1.8,85,0.00,,,0.10,WUHU216HW,2013-05-24 01:32:00,
2013-05-23 21:37:00,45.2,41.0,30.13,SSE,158,0.7,1.8,85,0.00,,,0.10,WUHU216HW,2013-05-24 01:37:00,
2013-05-23 21:42:00,45.2,41.0,30.14,NW,315,0.7,1.8,85,0.00,,,0.10,WUHU216HW,2013-05-24 01:42:00,
2013-05-23 21:47:00,45.4,41.1,30.13,NNE,23,0.0,0.9,85,0.00,,,0.10,WUHU216HW,2013-05-24 01:47:00,
2013-05-23 21:52:00,45.4,41.1,30.14,SSW,203,0.4,1.3,85,0.00,,,0.10,WUHU216HW,2013-05-24 01:52:00,
2013-05-23 21:57:00,45.4,41.1,30.14,SE,135,1.1,1.8,85,0.00,,,0.10,WUHU216HW,2013-05-24 01:57:00,
2013-05-23 22:02:00,45.4,41.1,30.15,ESE,113,2.5,2.5,85,0.00,,,0.10,WUHU216HW,2013-05-24 02:02:00,
2013-05-23 22:07:00,45.4,41.1,30.14,SE,135,0.2,2.5,85,0.00,,,0.10,WUHU216HW,2013-05-24 02:07:00,
2013-05-23 22:12:00,45.4,41.1,30.15,SE,135,1.6,2.2,85,0.00,,,0.10,WUHU216HW,2013-05-24 02:12:00,
2013-05-23 22:17:00,45.4,41.1,30.15,West,270,1.1,3.1,85,0.00,,,0.10,WUHU216HW,2013-05-24 02:17:00,
2013-05-23 22:22:00,45.4,41.1,30.15,ESE,113,2.5,3.1,85,0.00,,,0.10,WUHU216HW,2013-05-24 02:22:00,
2013-05-23 22:27:00,45.4,41.1,30.15,SE,135,1.1,2.5,85,0.00,,,0.10,WUHU216HW,2013-05-24 02:27:00,
2013-05-23 22:32:00,45.4,41.1,30.16,SE,135,0.2,1.3,85,0.00,,,0.10,WUHU216HW,2013-05-24 02:32:00,
2013-05-23 22:37:00,45.4,41.1,30.16,SE,135,0.7,1.6,85,0.00,,,0.10,WUHU216HW,2013-05-24 02:37:00,
2013-05-23 22:42:00,45.4,41.1,30.16,ESE,113,0.4,1.6,85,0.00,,,0.10,WUHU216HW,2013-05-24 02:42:00,
2013-05-23 22:47:00,45.4,41.1,30.16,East,90,0.2,1.1,85,0.00,,,0.10,WUHU216HW,2013-05-24 02:47:00,
2013-05-23 22:52:00,45.4,41.1,30.16,SE,135,0.4,0.9,85,0.00,,,0.10,WUHU216HW,2013-05-24 02:52:00,
2013-05-23 22:57:00,45.5,41.3,30.16,ESE,113,0.4,0.9,85,0.00,,,0.10,WUHU216HW,2013-05-24 02:57:00,
2013-05-23 23:02:00,45.5,41.3,30.16,ESE,113,0.4,1.1,85,0.00,,,0.10,WUHU216HW,2013-05-24 03:02:00,
2013-05-23 23:07:00,45.4,41.1,30.16,West,270,0.0,2.0,85,0.00,,,0.10,WUHU216HW,2013-05-24 03:07:00,
2013-05-23 23:12:00,45.5,41.3,30.16,WNW,293,0.4,2.0,85,0.00,,,0.10,WUHU216HW,2013-05-24 03:12:00,
2013-05-23 23:17:00,45.5,41.3,30.16,SSE,158,0.4,0.7,85,0.00,,,0.10,WUHU216HW,2013-05-24 03:17:00,
2013-05-23 23:22:00,45.5,41.3,30.16,WNW,293,0.4,1.1,85,0.00,,,0.10,WUHU216HW,2013-05-24 03:22:00,
2013-05-23 23:27:00,45.5,41.3,30.16,WNW,293,0.0,1.1,85,0.00,,,0.10,WUHU216HW,2013-05-24 03:27:00,
2013-05-23 23:32:00,45.5,41.3,30.17,SSW,203,0.2,0.2,85,0.00,,,0.10,WUHU216HW,2013-05-24 03:32:00,
2013-05-23 23:37:00,45.5,41.1,30.17,WNW,293,0.2,0.9,84,0.00,,,0.10,WUHU216HW,2013-05-24 03:37:00,
2013-05-23 23:42:00,45.5,41.1,30.17,ESE,113,0.0,2.5,84,0.00,,,0.10,WUHU216HW,2013-05-24 03:42:00,
2013-05-23 23:47:00,45.4,40.9,30.18,WSW,248,0.2,2.5,84,0.00,,,0.10,WUHU216HW,2013-05-24 03:47:00,
2013-05-23 23:52:00,45.2,40.7,30.18,West,270,0.2,0.9,84,0.00,,,0.10,WUHU216HW,2013-05-24 03:52:00,
2013-05-23 23:57:00,45.2,40.7,30.18,West,270,0.4,0.7,84,0.00,,,0.10,WUHU216HW,2013-05-24 03:57:00,